Regional Weather Roundup
Issued by NWS

Home | Current Version | Previous Version | Graphics & Text | Print | Product List | Glossary Off
Versions: 1 2 3 4 5 6 7 8 9 10 11 12 13 14 15 16 17 18 19 20 21 22 23 24 25 26 27 28 29 30 31 32 33 34 35 36 37 38 39 40 41 42 43 44 45 46 47 48 49 50

000
ASUS43 KMPX 180610
RWRMN
WEATHER ROUNDUP FOR MINNESOTA
NATIONAL WEATHER SERVICE TWIN CITIES/CHANHASSEN MN
100 AM CDT THU SEP 18 2014


NOTE: "FAIR" INDICATES FEW OR NO CLOUDS BELOW 12,000 FEET WITH NO
SIGNIFICANT WEATHER AND/OR OBSTRUCTIONS TO VISIBILITY. N/A MEANS
CURRENT SKY AND/OR WEATHER CONDITIONS ARE NOT AVAILABLE.

MNZ060>063-068>070-180700-
   Twin Cities Metro

CITY           SKY/WX    TMP DP  RH WIND       PRES   REMARKS
TWIN CITIES    CLEAR     56  52  86 NE8       30.04R
6HR MIN TEMP:  56; 6HR MAX TEMP:  70;

ST PAUL        CLEAR     55  51  86 E7        30.06R
CRYSTAL        CLEAR     54  50  86 NE7       30.04R
BLAINE         CLEAR     54  52  94 N5        30.06R
LAKEVILLE      MOCLDY    52  52 100 CALM      30.03R
EDEN PRAIRIE     N/A    N/A N/A N/A MISG      30.02R
SOUTH ST PAUL  CLEAR     56  51  84 NE5       30.05R
LAKE ELMO      FAIR      52  50  93 NE6       30.07R
$$
MNZ001>005-007-008-013>017-022>024-027-028-180700-
   Northwest Minnesota

CITY           SKY/WX    TMP DP  RH WIND       PRES   REMARKS
BEMIDJI        CLOUDY    48  46  92 E7        30.06S
HALLOCK        CLEAR     43  39  87 E6        30.06F
ROSEAU         CLEAR     39  36  87 E6        30.10R
WARROAD        CLEAR     43  39  87 E9        30.11R
THIEF RVR FALL CLEAR     43  39  87 E6        30.06S
CROOKSTON      CLEAR     46  45  93 E8        30.04F
FOSSTON        CLEAR     43  39  87 CALM      30.05S
DETROIT LAKES  CLEAR     52  50  93 E3        30.04S
MOORHEAD       CLEAR     46  46 100 CALM      30.02S
PARK RAPIDS    CLOUDY    51  49  92 E7        30.05S
MAHNOMEN       FAIR      47  45  91 E5        30.03S
$$
MNZ006-009>011-018-025>026-180700-
   North Central Minnesota

CITY           SKY/WX    TMP DP  RH WIND       PRES   REMARKS
BAUDETTE       CLEAR     36  34  92 E5        30.10F
FLAG ISLAND    CLEAR     45  37  76 SE6       30.10R
INTL FALLS     CLEAR     36  34  92 E5        30.11S
6HR MIN TEMP:  31; 6HR MAX TEMP:  48;

WASKISH        CLEAR     37  36  93 CALM      30.08F
BIG FORK       CLOUDY    46  43  87 SE7       30.10R
LONGVILLE      CLOUDY    45  43  93 CALM      30.08S
GRAND RAPIDS   CLOUDY    43  39  87 SE8       30.10S
CRANE LAKE     CLOUDY    34  34 100 CALM      30.14S
ORR            CLOUDY    43  39  87 SE5       30.10R
COOK           CLOUDY    43  39  87 SE6       30.13R
WALKER         CLOUDY    47  46  95 E3        30.07R
$$
MNZ012-019>021-037-180700-
   Northeast Minnesota

CITY           SKY/WX    TMP DP  RH WIND       PRES   REMARKS
DULUTH         CLOUDY    45  39  79 E12       30.12S
6HR MIN TEMP:  45; 6HR MAX TEMP:  45;

ELY            CLEAR     36  34  93 CALM      30.13S
HIBBING        CLOUDY    44  39  82 SE10      30.12S
EVELETH        CLOUDY    43  39  87 SE6       30.13S
DULUTH HARBOR  CLOUDY    48  43  81 E10       30.15R
TWO HARBORS    CLOUDY    45  37  76 E9        30.13R
SILVER BAY     PTCLDY    43  39  87 E5        30.13S
GRAND MARAIS     N/A     45  38  76 NE3       30.17R
G MARAIS ARPRT CLOUDY    37  30  75 CALM      30.15S
$$
MNZ029>031-032-039>041-046>048-054>057-064-180700-
   West Central Minnesota

CITY           SKY/WX    TMP DP  RH WIND       PRES   REMARKS
FERGUS FALLS   CLEAR     57  48  72 E6        30.01S
WHEATON        CLEAR     48  45  87 CALM      30.02R
MORRIS         CLEAR     54  52  94 E7        30.00R
ALEXANDRIA     CLEAR     55  50  83 E9        30.04R
ELBOW LAKE     FAIR      56  52  86 E8        30.01S
WADENA         CLOUDY    50  48  93 E9        30.04S
GLENWOOD       CLEAR     52  50  93 NE6       30.03R
APPLETON       CLEAR     54  52  94 E5        29.99S
BENSON         PTCLDY    57  54  88 SE3       30.01R
ORTONVILLE     CLEAR     57  52  82 E7        29.99S
MADISON        CLEAR     52  50  93 CALM      30.00S
WILLMAR        FAIR      55  52  88 E6        30.03R
$$
MNZ033>034-036-042>043-049>051-058-059-180700-
   Central Minnesota

CITY           SKY/WX    TMP DP  RH WIND       PRES   REMARKS
ST CLOUD       CLOUDY    51  48  89 NE10G16   30.07R
6HR MIN TEMP:  51; 6HR MAX TEMP:  70;

SAUK CENTRE    FAIR      51  50  95 E13       30.04R
PAYNESVILLE    CLEAR     52  51  97 NE5       30.04R
AITKIN         PTCLDY    46  39  76 E6        30.09R
PINE RIVER     CLOUDY    45  45 100 E8        30.11S
BRAINERD       CLOUDY    45  43  93 VRB6      30.09R
STAPLES        CLOUDY    48  46  93 E5        30.06R
LONG PRAIRIE   CLOUDY    50  48  93 NE7       30.05S
LITTLE FALLS   CLOUDY    46  45  93 E5        30.08R
LITCHFIELD     CLEAR     55  55 100 E8        30.04R
BUFFALO        PTCLDY    51  48  89 NE10      30.06R
MAPLE LAKE     PTCLDY    51  49  95 NE8       30.07R
$$
MNZ037-044-045-052-053-180700-
   East Central Minnesota

CITY           SKY/WX    TMP DP  RH WIND       PRES   REMARKS
PRINCETON      CLOUDY    50  46  87 NE10      30.08R
MORA           CLOUDY    45  41  87 NE5       30.11S
CAMBRIDGE      MOCLDY    50  43  76 NE6       30.06S
RUSH CITY      MOCLDY    46  44  90 NE6       30.09S
MOOSE LAKE     CLEAR     43  37  81 CALM      30.11R
HINCKLEY       FAIR      45  43  93 NE7       30.11S
CLOQUET        CLOUDY    45  39  81 E6        30.12R
MCGREGOR       CLEAR     43  39  87 E6        30.11S
$$
MNZ071>073-080-081-089-090-097-098-180700-
   Southwest Minnesota

CITY           SKY/WX    TMP DP  RH WIND       PRES   REMARKS
MONTEVIDEO     CLEAR     54  52  94 S5        30.01S
GRANITE FALLS  CLEAR     56  51  85 SE3       30.02S
CANBY          CLEAR     52  50  95 CALM      30.01S
MARSHALL       CLEAR     52  48  87 CALM      30.00S
REDWOOD FALLS  CLEAR     57  53  86 E3        30.01R
OLIVIA         CLEAR     57  52  82 SE5       30.01R
PIPESTONE      MOCLDY    57  52  82 SE5       30.01S
WINDOM         CLEAR     57  54  88 CALM      30.02R
WORTHINGTON    PTCLDY    52  50  93 CALM      30.02S
JACKSON        CLEAR     54  50  87 CALM      30.02S
TRACY          CLEAR     59  53  80 CALM      30.01S
SLAYTON        CLEAR     54  52  93 CALM      30.02S
$$
MNZ065>067-074>077-082>085-091>093-180700-
   South Central Minnesota

CITY           SKY/WX    TMP DP  RH WIND       PRES   REMARKS
MANKATO        CLEAR     55  48  76 SE6       30.02R
NEW ULM        CLEAR     55  54  94 CALM      30.01S
ST JAMES       PTCLDY    55  52  88 CALM      30.02S
FAIRMONT       CLEAR     54  46  76 CALM      30.01S
GLENCOE        CLEAR     54  52  90 CALM      30.02R FOG
FARIBAULT      HAZE      52  46  82 CALM      30.03S VSB 3/4
OWATONNA       CLEAR     52  50  93 CALM      30.03S
WASECA         CLEAR     50  46  87 CALM      30.04S
ALBERT LEA     CLEAR     52  52 100 CALM      30.03S
$$
MNZ078>079-086>088-094>096-180700-
   Southeast Minnesota

CITY           SKY/WX    TMP DP  RH WIND       PRES   REMARKS
ROCHESTER      CLEAR     51  49  92 S6        30.04S
6HR MIN TEMP:  51; 6HR MAX TEMP:  64;

RED WING       CLEAR     54  54 100 E8        30.03R
STANTON        MOCLDY    51  49  93 CALM      30.01S
DODGE CENTER   CLEAR     54  50  87 CALM      30.03S
WINONA         CLEAR     54  54 100 CALM      30.04S
AUSTIN         CLEAR     50  48  93 CALM      30.03S
PRESTON        CLEAR     54  53  97 S3        30.05R
$$
ABBREVIATIONS USED IN REMARKS
   TC - TEMPERATURES IN CELSIUS
  WCI - WIND CHILL INDEX
   HX - HEAT INDEX
  VSB - VISIBILITY
$$


USA.gov is the U.S. government's official web portal to all federal, state and local government web resources and services.